Weather History for Meadow Lake, CO

Change the Weather History Date:

Friday, August 23, 2013

  Actual Average (KCOS) Record (KCOS)
Temperature  
Mean Temperature 68 °F 68 °F  
Max Temperature 80 °F 81 °F 95 °F (2011)
Min Temperature 56 °F 55 °F 44 °F (1896)
Degree Days  
Heating Degree Days 0 1  
Month to date heating degree days 8  
Since 1 June heating degree days 97  
Since 1 July heating degree days 18  
Cooling Degree Days 3 4  
Month to date cooling degree days 109  
Year to date cooling degree days 393  
Since 1 June cooling degree days 383  
Growing Degree Days 18 (Base 50)    
Moisture  
Dew Point 52 °F    
Average Humidity 61    
Maximum Humidity 92    
Minimum Humidity 29    
Precipitation  
Precipitation 0.00 in 0.09 in 1.92 in (1996)
Month to date precipitation 2.64  
Year to date precipitation 13.09  
Snow  
Snow 0.00 in 0.00 in 0.00 in (2002)
Month to date snowfall 0.0  
Since 1 June snowfall 0.0  
Since 1 July snowfall 0.0  
Snow Depth -    
Sea Level Pressure  
Sea Level Pressure 30.25 in    
Wind  
Wind Speed 8 mph (South)    
Max Wind Speed 16 mph    
Max Gust Speed 22 mph    
Visibility 10 miles    
Events Rain , Thunderstorm    
T = Trace of Precipitation, MM = Missing Value Source: NWS Daily Summary

Daily Weather History Graph

Daily Weather History Graph

Search for Another Location

Airport:

Trip Planner

Search our weather history database for the weather conditions in past years. The results will help you decide how hot, cold, wet, or windy it might be!

Date:

Astronomy

Aug. 23, 2013 Rise Set
Actual Time 6:19 AM MDT 7:41 PM MDT
Civil Twilight 5:51 AM MDT 8:09 PM MDT
Nautical Twilight 5:17 AM MDT 8:42 PM MDT
Astronomical Twilight 4:42 AM MDT 9:17 PM MDT
Moon 9:04 PM MDT (8/23) 9:15 AM MDT (8/23)
Length of Visible Light 14h 17m
Length of Day
13h 22m
Waning Gibbous, 91% of the Moon is Illuminated
Aug 23
Waning Gibbous
Aug 28
Last Quarter
Sep 5
New
Sep 12
First Quarter
Sep 19
Full

Hourly Weather History & Observations

Time (MDT) Temp. Dew Point Humidity Pressure Visibility Wind Dir Wind Speed Gust Speed Precip Events Conditions
12:08 AM 57.2 °F 55.0 °F 92% 30.40 in 10.0 mi North 8.1 mph - N/A Rain Light Rain
12:28 AM 57.4 °F 54.3 °F 90% 30.39 in 10.0 mi NNW 9.2 mph - N/A Rain , Thunderstorm Rain
12:48 AM 57.2 °F 52.9 °F 85% 30.37 in 10.0 mi North 11.5 mph - N/A Rain Light Rain
1:08 AM 57.4 °F 52.0 °F 82% 30.37 in 10.0 mi NNW 11.5 mph 19.6 mph N/A Rain , Thunderstorm Light Thunderstorms and Rain
1:28 AM 57.0 °F 52.3 °F 84% 30.39 in 10.0 mi NW 9.2 mph - N/A Rain Light Rain
1:48 AM 57.0 °F 52.7 °F 85% 30.38 in 10.0 mi North 6.9 mph - N/A Rain Light Rain
2:08 AM 56.7 °F 53.1 °F 88% 30.34 in 10.0 mi NNE 12.7 mph - N/A Rain Light Rain
2:28 AM 56.8 °F 52.3 °F 85% 30.33 in 10.0 mi NNE 10.4 mph 21.9 mph N/A Rain Light Rain
2:48 AM 56.5 °F 53.4 °F 89% 30.30 in 10.0 mi North 10.4 mph - N/A Rain Light Rain
3:08 AM 58.1 °F 52.3 °F 81% 30.29 in 10.0 mi North 9.2 mph - N/A   Overcast
3:28 AM 58.1 °F 52.5 °F 82% 30.29 in 10.0 mi North 5.8 mph - N/A   Mostly Cloudy
3:48 AM 58.3 °F 52.3 °F 81% 30.28 in 10.0 mi NNW 6.9 mph - N/A   Scattered Clouds
4:08 AM 57.2 °F 52.9 °F 85% 30.28 in 10.0 mi NW 9.2 mph - N/A   Clear
4:28 AM 56.7 °F 52.9 °F 87% 30.27 in 10.0 mi WSW 3.5 mph - N/A   Clear
4:48 AM 57.2 °F 52.5 °F 84% 30.26 in 10.0 mi WSW 5.8 mph - N/A   Clear
5:08 AM 56.7 °F 53.1 °F 88% 30.26 in 10.0 mi SW 11.5 mph - N/A   Clear
5:28 AM 56.5 °F 52.9 °F 88% 30.26 in 10.0 mi SW 11.5 mph - N/A   Clear
5:48 AM 56.3 °F 53.1 °F 89% 30.25 in 10.0 mi NW 12.7 mph - N/A   Clear
6:08 AM 56.7 °F 52.7 °F 87% 30.24 in 10.0 mi West 5.8 mph - N/A   Clear
6:28 AM 56.3 °F 52.7 °F 88% 30.25 in 10.0 mi West 3.5 mph - N/A   Clear
6:48 AM 58.6 °F 50.4 °F 74% 30.25 in 10.0 mi Calm Calm - N/A   Clear
7:08 AM 59.2 °F 52.0 °F 77% 30.25 in 10.0 mi West 4.6 mph - N/A   Clear
7:28 AM 60.8 °F 52.5 °F 74% 30.26 in 10.0 mi WNW 4.6 mph - N/A   Clear
7:48 AM 60.3 °F 52.3 °F 75% 30.26 in 10.0 mi Calm Calm - N/A   Clear
8:08 AM 60.8 °F 53.1 °F 76% 30.26 in 10.0 mi Calm Calm - N/A   Clear
8:28 AM 63.1 °F 53.6 °F 71% 30.27 in 10.0 mi NE 4.6 mph - N/A   Clear
8:48 AM 66.4 °F 54.0 °F 64% 30.27 in 10.0 mi SSW 3.5 mph - N/A   Clear
9:08 AM 67.1 °F 54.7 °F 64% 30.27 in 10.0 mi SSW 5.8 mph - N/A   Clear
9:28 AM 66.4 °F 54.1 °F 65% 30.28 in 10.0 mi South 9.2 mph - N/A   Clear
9:48 AM 65.3 °F 54.7 °F 68% 30.28 in 10.0 mi South 4.6 mph - N/A   Clear
10:08 AM 67.6 °F 54.1 °F 62% 30.28 in 10.0 mi SSW 6.9 mph - N/A   Clear
10:28 AM 69.8 °F 55.2 °F 60% 30.28 in 10.0 mi SSW 6.9 mph - N/A   Clear
10:48 AM 72.0 °F 55.9 °F 57% 30.28 in 10.0 mi South 11.5 mph 17.3 mph N/A   Clear
11:08 AM 72.0 °F 56.3 °F 58% 30.27 in 10.0 mi SSW 8.1 mph - N/A   Clear
11:28 AM 71.1 °F 56.7 °F 60% 30.27 in 10.0 mi South 10.4 mph - N/A   Clear
11:48 AM 72.1 °F 57.6 °F 60% 30.27 in 10.0 mi South 6.9 mph - N/A   Scattered Clouds
12:08 PM 74.1 °F 58.3 °F 58% 30.27 in 10.0 mi SSE 8.1 mph - N/A   Scattered Clouds
12:28 PM 73.6 °F 57.6 °F 57% 30.27 in 10.0 mi South 6.9 mph - N/A   Scattered Clouds
12:48 PM 74.7 °F 57.6 °F 55% 30.26 in 10.0 mi SSE 8.1 mph - N/A   Scattered Clouds
1:08 PM 75.2 °F 57.6 °F 54% 30.25 in 10.0 mi SSE 11.5 mph - N/A   Scattered Clouds
1:28 PM 75.9 °F 57.6 °F 53% 30.25 in 10.0 mi SE 4.6 mph - N/A   Clear
1:48 PM 76.3 °F 56.5 °F 50% 30.24 in 10.0 mi SSE 9.2 mph - N/A   Clear
2:08 PM 77.4 °F 56.1 °F 48% 30.23 in 10.0 mi SE 5.8 mph - N/A   Clear
2:28 PM 78.3 °F 54.0 °F 43% 30.22 in 10.0 mi South 9.2 mph - N/A   Clear
2:48 PM 78.8 °F 53.6 °F 42% 30.22 in 10.0 mi SSE 10.4 mph 17.3 mph N/A   Clear
3:08 PM 79.7 °F 51.6 °F 38% 30.21 in 10.0 mi South 12.7 mph 17.3 mph N/A   Clear
3:28 PM 79.7 °F 52.2 °F 38% 30.20 in 10.0 mi SSE 12.7 mph 19.6 mph N/A   Clear
3:48 PM 79.9 °F 48.2 °F 33% 30.19 in 10.0 mi South 13.8 mph - N/A   Clear
4:08 PM 80.4 °F 47.3 °F 31% 30.19 in 10.0 mi South 16.1 mph 20.7 mph N/A   Clear
4:28 PM 80.4 °F 47.5 °F 31% 30.18 in 10.0 mi South 16.1 mph - N/A   Clear
4:48 PM 80.4 °F 46.9 °F 31% 30.18 in 10.0 mi South 12.7 mph 16.1 mph N/A   Clear
5:08 PM 79.9 °F 45.3 °F 29% 30.18 in 10.0 mi South 16.1 mph 20.7 mph N/A   Clear
5:28 PM 79.9 °F 47.3 °F 32% 30.17 in 10.0 mi SSE 13.8 mph 17.3 mph N/A   Clear
5:48 PM 79.0 °F 46.4 °F 32% 30.17 in 10.0 mi SSE 12.7 mph 18.4 mph N/A   Clear
6:08 PM 78.1 °F 46.2 °F 32% 30.16 in 10.0 mi SSE 11.5 mph - N/A   Clear
6:28 PM 76.3 °F 47.7 °F 36% 30.16 in 10.0 mi SSE 10.4 mph - N/A   Clear
6:48 PM 74.3 °F 48.2 °F 40% 30.16 in 10.0 mi SSE 8.1 mph - N/A   Clear
7:08 PM 71.4 °F 49.3 °F 45% 30.16 in 10.0 mi SSE 5.8 mph - N/A   Clear
7:28 PM 68.7 °F 50.7 °F 53% 30.17 in 10.0 mi South 5.8 mph - N/A   Clear
7:48 PM 68.0 °F 49.3 °F 51% 30.17 in 10.0 mi SSE 5.8 mph - N/A   Clear
8:08 PM 67.5 °F 48.6 °F 51% 30.18 in 10.0 mi SSE 4.6 mph - N/A   Clear
8:28 PM 66.2 °F 48.4 °F 53% 30.19 in 10.0 mi SSE 8.1 mph - N/A   Clear
8:48 PM 65.3 °F 47.8 °F 53% 30.19 in 10.0 mi SSE 8.1 mph - N/A   Clear
9:08 PM 66.2 °F 47.1 °F 50% 30.20 in 10.0 mi SSE 10.4 mph - N/A   Clear
9:28 PM 66.2 °F 46.2 °F 49% 30.20 in 10.0 mi SSE 10.4 mph - N/A   Clear
9:48 PM 65.3 °F 45.9 °F 49% 30.20 in 10.0 mi SSE 10.4 mph - N/A   Clear
10:08 PM 64.0 °F 46.4 °F 53% 30.20 in 10.0 mi SSE 8.1 mph - N/A   Clear
10:28 PM 62.6 °F 45.9 °F 54% 30.20 in 10.0 mi SSE 6.9 mph - N/A   Clear
10:48 PM 62.6 °F 45.5 °F 54% 30.20 in 10.0 mi SSE 6.9 mph - N/A   Clear
11:08 PM 62.1 °F 45.1 °F 54% 30.20 in 10.0 mi ESE 3.5 mph - N/A   Clear
11:28 PM 63.1 °F 44.4 °F 50% 30.20 in 10.0 mi ESE 3.5 mph - N/A   Clear
11:48 PM 63.3 °F 43.2 °F 48% 30.19 in 10.0 mi SE 6.9 mph - N/A   Clear